STARLINK-38184, 100180

Orbit data source: Space-Track

STARLINK-38184, 100180 is a payload satellite owned by SpaceX/Seattle (US) in SSO that was launched on Sat, 01 Aug 2026 UTC launched from the Air Force Western Test Range (AFWTR). Payload-class satellites include a variety of spacecraft equipped with specific instruments for various scientific and technological missions. These include communications satellites like Starlink; space stations such as the ISS; scientific satellites like the Hubble; Earth observation satellites from companies like Planet Labs, Umbra, and HawkEye 360; GPS; miniature CubeSats for education and research; and military/defense satellites.

Loading next visibility...
Identifier
100180, 2026-175B
Orbit
SSO
Country
Flag of USUS
Related business
Manufacturer
SpaceX/Seattle
Mission
Operational spacecraft
Bus & Motor
STARLINK V2MO, Unknown motor
Mass
575 kg wet, ~530 kg dry
Launch date (UTC)
2026-08-01 (2 months ago)
Launch vehicle
Unknown
Launch site
Air Force Western Test Range (AFWTR)
Object type
Payload
Rocket body
Debris
Shape & HBR
BOX + PAN, 17.7 m
Radar Cross Section
Large (>1 m²)

Expand to show TLE details & history
Last TLE update: 8 hours ago

TLE from 8 hours ago
0 STARLINK-38184
1 A0180U 26175B   26263.87354163 -.00230320  00000-0 -23144-2 0  9994
2 A0180  97.2843 106.3062 0001287  97.3257 262.8149 15.66104972  9230
Epoch: 2026-09-20T20:57Z
TLE epoch observation values (Epoch: 2026-09-20T20:57:53.996Z)
Latitude
-0.00011°
Longitude
152.06976°
Altitude
373.328 km
Speed
7.686 km/s
True Right ascension
07h 05m 13s
True Declination
0° 00' 00"
Sunlit
Object was in daylight at epoch
Visualization orbit readout
Latitude
Unknown
Longitude
Unknown
Altitude
Unknown
Speed
Unknown
Apparent Right ascension
Unknown
Apparent Declination
Unknown
Sunlit
N/A
Visualization observer readout
Local Sidereal Time
22:07:32
Azimuth
Unknown
Elevation
Unknown
Doppler factor
Unknown
Orbital elements
Apogee altitude
367.83 km
Perigee altitude
366.094 km
Semi-major axis
6,745.099 km
Eccentricity
0.00013
Inclination
97.2843°
RAAN
106.3062°
Arg. of periapsis
97.3257°
True anomaly
262.80027°
Mean anomaly
262.8149°
Eccentric anomaly
262.80758°
Mean motion
3.91797 °/min
Orbital period
91.88 mins
BSTAR
-0.0023144
Loading maneuver chart data...
Computing Atmospheric mass density...
Loading historical data...
Loading historical data...
Loading historical data...
Loading historical data...
Loading historical data...
Loading historical data...
Loading historical data...

Documentation

Showing up to 5 results
|